Tracking 25709 objects as of 23-May-2022
HD Live streaming from Space Station
objects crossing your sky now

UNHA 3 R/B

Track UNHA 3 R/B now!
10-day predictions


NORAD ID: 41333
Int'l Code: 2016-009B
Perigee: 410.4 km
Apogee: 453.2 km
Inclination: 97.3 °
Period: 93.1 minutes
Semi major axis: 6802 km
RCS: Unknown
Launch date: February 7, 2016
Source: North Korea (NKOR)
Launch site: Yunsong, DPRK (YUN)

Note: This is a ROCKET BODY
aabbcc
Your satellite tracking list
Your tracking list is empty




NASA's NSSDC Master Catalog

Two Line Element Set (TLE):
1 41333U 16009B   22142.83476695  .00028462  00000-0  54837-3 0  9991
2 41333  97.3419 244.5026 0031476   0.6211 359.5073 15.47276282353000
Source of the keplerian elements: AFSPC